| time (UTC) | temp F | wind direction | speed MPH | gust MPH | rain 1hr in | rain 24hr in | rain mn in | humidity % | barometer mb |
| 20260502205405 | 55 | 67 | 2.0 | 3.0 | 0.00 | 0.00 | 0.00 | 58 | 1017.8 |
| 20260502204404 | 55 | 60 | 2.0 | 3.0 | 0.00 | 0.00 | 0.00 | 57 | 1017.9 |
| 20260502203904 | 56 | 61 | 2.0 | 3.0 | 0.00 | 0.00 | 0.00 | 56 | 1017.9 |
| 20260502203405 | 56 | 65 | 2.0 | 3.0 | 0.00 | 0.00 | 0.00 | 56 | 1017.9 |
| 20260502202904 | 56 | 65 | 2.0 | 3.0 | 0.00 | 0.00 | 0.00 | 55 | 1017.9 |
| 20260502202404 | 57 | 65 | 2.0 | 3.0 | 0.00 | 0.00 | 0.00 | 55 | 1018.0 |
| 20260502201904 | 57 | 65 | 2.0 | 3.0 | 0.00 | 0.00 | 0.00 | 54 | 1018.0 |
| 20260502201418 | 57 | 65 | 1.0 | 3.0 | 0.00 | 0.00 | 0.00 | 54 | 1018.0 |
| 20260502200405 | 58 | 65 | 1.0 | 1.0 | 0.00 | 0.00 | 0.00 | 53 | 1017.9 |
| 20260502195404 | 59 | 65 | 1.0 | 2.0 | 0.00 | 0.00 | 0.00 | 53 | 1018.0 |
| 20260502194404 | 60 | 65 | 0.0 | 1.0 | 0.00 | 0.00 | 0.00 | 52 | 1018.0 |
| 20260502193404 | 60 | 65 | 0.0 | 0.0 | 0.00 | 0.00 | 0.00 | 49 | 1018.0 |
| 20260502192904 | 61 | 65 | 0.0 | 0.0 | 0.00 | 0.00 | 0.00 | 49 | 1017.9 |
| 20260502192404 | 61 | 65 | 0.0 | 0.0 | 0.00 | 0.00 | 0.00 | 49 | 1018.0 |
| 20260502191904 | 61 | 65 | 0.0 | 0.0 | 0.00 | 0.00 | 0.00 | 49 | 1017.9 |
| 20260502191404 | 62 | 65 | 1.0 | 2.0 | 0.00 | 0.00 | 0.00 | 48 | 1017.8 |
| 20260502190904 | 62 | 65 | 1.0 | 3.0 | 0.00 | 0.00 | 0.00 | 48 | 1017.8 |
| 20260502190405 | 63 | 65 | 2.0 | 3.0 | 0.00 | 0.00 | 0.00 | 47 | 1017.7 |
| 20260502185404 | 64 | 65 | 2.0 | 3.0 | 0.00 | 0.00 | 0.00 | 46 | 1017.7 |
| 20260502184904 | 64 | 71 | 1.0 | 3.0 | 0.00 | 0.00 | 0.00 | 46 | 1017.7 |
| 20260502184404 | 65 | 24 | 1.0 | 2.0 | 0.00 | 0.00 | 0.00 | 46 | 1017.7 |
| 20260502183904 | 66 | 24 | 1.0 | 3.0 | 0.00 | 0.00 | 0.00 | 45 | 1017.8 |
| 20260502183404 | 66 | 24 | 1.0 | 2.0 | 0.00 | 0.00 | 0.00 | 44 | 1017.7 |
| 20260502182905 | 67 | 24 | 0.0 | 0.0 | 0.00 | 0.00 | 0.00 | 44 | 1017.7 |
| 20260502182404 | 67 | 24 | 0.0 | 0.0 | 0.00 | 0.00 | 0.00 | 43 | 1017.7 |
| 20260502181905 | 68 | 24 | 0.0 | 0.0 | 0.00 | 0.00 | 0.00 | 43 | 1017.6 |
| 20260502181404 | 68 | 24 | 0.0 | 0.0 | 0.00 | 0.00 | 0.00 | 42 | 1017.6 |
| 20260502180904 | 69 | 24 | 0.0 | 0.0 | 0.00 | 0.00 | 0.00 | 42 | 1017.5 |
| 20260502180405 | 69 | 24 | 0.0 | 0.0 | 0.00 | 0.00 | 0.00 | 41 | 1017.5 |
| 20260502163904 | 76 | 13 | 4.0 | 7.0 | 0.00 | 0.00 | 0.00 | 30 | 1017.7 |
| 20260502163404 | 76 | 11 | 3.0 | 8.0 | 0.00 | 0.00 | 0.00 | 29 | 1017.7 |
| 20260502162904 | 77 | 21 | 4.0 | 12.0 | 0.00 | 0.00 | 0.00 | 29 | 1017.8 |
| 20260502162404 | 77 | 31 | 2.0 | 8.0 | 0.00 | 0.00 | 0.00 | 29 | 1017.8 |
| 20260502161904 | 78 | 5 | 2.0 | 3.0 | 0.00 | 0.00 | 0.00 | 28 | 1017.9 |
| 20260502160404 | 80 | 30 | 3.0 | 10.0 | 0.00 | 0.00 | 0.00 | 27 | 1018.1 |
| 20260502151904 | 81 | 19 | 4.0 | 8.0 | 0.00 | 0.00 | 0.00 | 26 | 1018.4 |
| 20260502151404 | 81 | 30 | 2.0 | 7.0 | 0.00 | 0.00 | 0.00 | 26 | 1018.5 |
| 20260502150917 | 81 | 32 | 7.0 | 12.0 | 0.00 | 0.00 | 0.00 | 25 | 1018.5 |
| 20260502130404 | 80 | 339 | 4.0 | 8.0 | 0.00 | 0.00 | 0.00 | 28 | 1019.7 |
| 20260502123404 | 79 | 88 | 3.0 | 12.0 | 0.00 | 0.00 | 0.00 | 29 | 1019.9 |
| 20260502122904 | 78 | 36 | 2.0 | 6.0 | 0.00 | 0.00 | 0.00 | 29 | 1020.0 |
| 20260502122404 | 78 | 46 | 6.0 | 12.0 | 0.00 | 0.00 | 0.00 | 29 | 1020.1 |
| 20260502121904 | 78 | 28 | 5.0 | 12.0 | 0.00 | 0.00 | 0.00 | 32 | 1020.2 |
| 20260502121404 | 77 | 53 | 2.0 | 8.0 | 0.00 | 0.00 | 0.00 | 31 | 1020.3 |
| 20260502120404 | 77 | 15 | 2.0 | 7.0 | 0.00 | 0.00 | 0.00 | 34 | 1020.5 |
| 20260502114405 | 75 | 26 | 0.0 | 3.0 | 0.00 | 0.00 | 0.00 | 35 | 1020.8 |
| 20260502112904 | 74 | 346 | 2.0 | 7.0 | 0.00 | 0.00 | 0.00 | 36 | 1021.0 |
| 20260502112404 | 74 | 1 | 5.0 | 8.0 | 0.00 | 0.00 | 0.00 | 36 | 1021.0 |
| 20260502111405 | 74 | 323 | 2.0 | 3.0 | 0.00 | 0.00 | 0.00 | 36 | 1021.1 |
| 20260502110404 | 74 | 9 | 3.0 | 6.0 | 0.00 | 0.00 | 0.00 | 36 | 1021.3 |
| 20260502105904 | 74 | 351 | 2.0 | 7.0 | 0.00 | 0.00 | 0.00 | 36 | 1021.3 |
| 20260502105404 | 74 | 43 | 2.0 | 8.0 | 0.00 | 0.00 | 0.00 | 37 | 1021.5 |
| 20260502104904 | 74 | 0 | 3.0 | 5.0 | 0.00 | 0.00 | 0.00 | 37 | 1021.5 |
| 20260502104404 | 74 | 19 | 2.0 | 3.0 | 0.00 | 0.00 | 0.00 | 37 | 1021.6 |
| 20260502103904 | 73 | 33 | 3.0 | 10.0 | 0.00 | 0.00 | 0.00 | 38 | 1021.7 |
| 20260502103404 | 73 | 29 | 2.0 | 5.0 | 0.00 | 0.00 | 0.00 | 38 | 1021.7 |
| 20260502102904 | 73 | 19 | 2.0 | 5.0 | 0.00 | 0.00 | 0.00 | 39 | 1021.7 |
| 20260502101905 | 73 | 1 | 2.0 | 5.0 | 0.00 | 0.00 | 0.00 | 38 | 1021.9 |
| 20260502101404 | 73 | 24 | 3.0 | 6.0 | 0.00 | 0.00 | 0.00 | 38 | 1021.9 |
| 20260502100904 | 73 | 18 | 6.0 | 12.0 | 0.00 | 0.00 | 0.00 | 39 | 1021.9 |
| 20260502100411 | 73 | 14 | 5.0 | 8.0 | 0.00 | 0.00 | 0.00 | 40 | 1021.9 |
| 20260502091404 | 70 | 330 | 2.0 | 6.0 | 0.00 | 0.00 | 0.00 | 44 | 1022.6 |
| 20260502090904 | 70 | 307 | 2.0 | 5.0 | 0.00 | 0.00 | 0.00 | 45 | 1022.6 |
| 20260502090404 | 70 | 251 | 2.0 | 6.0 | 0.00 | 0.00 | 0.00 | 47 | 1022.7 |
| 20260502071404 | 57 | 54 | 1.0 | 3.0 | 0.00 | 0.00 | 0.00 | 72 | 1023.4 |
| 20260502070904 | 56 | 54 | 1.0 | 3.0 | 0.00 | 0.00 | 0.00 | 70 | 1023.5 |
| 20260502070404 | 55 | 54 | 0.0 | 1.0 | 0.00 | 0.00 | 0.00 | 74 | 1023.5 |
| 20260502065905 | 54 | 54 | 2.0 | 3.0 | 0.00 | 0.00 | 0.00 | 76 | 1023.5 |
| 20260502065404 | 53 | 53 | 1.0 | 3.0 | 0.00 | 0.00 | 0.00 | 80 | 1023.6 |
| 20260502064904 | 52 | 53 | 2.0 | 3.0 | 0.00 | 0.00 | 0.00 | 82 | 1023.6 |
| 20260502064405 | 50 | 57 | 2.0 | 3.0 | 0.00 | 0.00 | 0.00 | 86 | 1023.6 |
| 20260502063904 | 49 | 44 | 2.0 | 3.0 | 0.00 | 0.00 | 0.00 | 86 | 1023.7 |
| 20260502063405 | 48 | 44 | 1.0 | 3.0 | 0.00 | 0.00 | 0.00 | 87 | 1023.6 |
| 20260502062904 | 47 | 52 | 2.0 | 3.0 | 0.00 | 0.00 | 0.00 | 89 | 1023.7 |
| 20260502062404 | 46 | 52 | 1.0 | 3.0 | 0.00 | 0.00 | 0.00 | 89 | 1023.8 |
| 20260502061904 | 46 | 52 | 1.0 | 2.0 | 0.00 | 0.00 | 0.00 | 91 | 1023.8 |
| 20260502060904 | 45 | 51 | 0.0 | 1.0 | 0.00 | 0.00 | 0.00 | 91 | 1023.8 |
| 20260502060404 | 44 | 51 | 0.0 | 0.0 | 0.00 | 0.00 | 0.00 | 91 | 1023.9 |
| 20260502055904 | 44 | 51 | 0.0 | 0.0 | 0.00 | 0.00 | 0.00 | 91 | 1023.9 |
| 20260502055404 | 43 | 51 | 0.0 | 0.0 | 0.00 | 0.00 | 0.00 | 91 | 1023.9 |
| 20260502053904 | 42 | 51 | 0.0 | 1.0 | 0.00 | 0.00 | 0.00 | 91 | 1023.9 |
| 20260502052905 | 41 | 51 | 0.0 | 0.0 | 0.00 | 0.00 | 0.00 | 90 | 1023.9 |
| 20260502052404 | 41 | 51 | 0.0 | 0.0 | 0.00 | 0.00 | 0.00 | 90 | 1023.9 |
| 20260502051905 | 41 | 51 | 0.0 | 0.0 | 0.00 | 0.00 | 0.00 | 90 | 1023.9 |
| 20260502051405 | 41 | 51 | 0.0 | 0.0 | 0.00 | 0.00 | 0.00 | 90 | 1023.9 |
| 20260502050904 | 40 | 51 | 0.0 | 0.0 | 0.00 | 0.00 | 0.00 | 89 | 1023.9 |
| 20260502050405 | 40 | 51 | 0.0 | 0.0 | 0.00 | 0.00 | 0.00 | 89 | 1023.9 |
| 20260502045908 | 40 | 51 | 0.0 | 0.0 | 0.00 | 0.00 | 0.00 | 89 | 1023.9 |
| 20260502045405 | 40 | 51 | 0.0 | 0.0 | 0.00 | 0.00 | 0.00 | 89 | 1023.9 |
| 20260502044904 | 40 | 51 | 0.0 | 0.0 | 0.00 | 0.00 | 0.00 | 89 | 1023.8 |
| 20260502044405 | 40 | 51 | 0.0 | 0.0 | 0.00 | 0.00 | 0.00 | 89 | 1023.8 |
| 20260502043904 | 40 | 51 | 0.0 | 0.0 | 0.00 | 0.00 | 0.00 | 89 | 1023.7 |
| 20260502043404 | 40 | 51 | 0.0 | 0.0 | 0.00 | 0.00 | 0.00 | 89 | 1023.6 |
| 20260502042904 | 40 | 52 | 0.0 | 0.0 | 0.00 | 0.00 | 0.00 | 89 | 1023.6 |
| 20260502042404 | 40 | 52 | 0.0 | 0.0 | 0.00 | 0.00 | 0.00 | 89 | 1023.6 |
| 20260502041904 | 40 | 52 | 0.0 | 1.0 | 0.00 | 0.00 | 0.00 | 89 | 1023.5 |
| 20260502041404 | 40 | 52 | 0.0 | 1.0 | 0.00 | 0.00 | 0.00 | 88 | 1023.5 |
| 20260502040904 | 40 | 52 | 0.0 | 2.0 | 0.00 | 0.00 | 0.00 | 89 | 1023.5 |
| 20260502040404 | 40 | 52 | 1.0 | 2.0 | 0.00 | 0.00 | 0.00 | 88 | 1023.5 |
| 20260502035904 | 40 | 52 | 1.0 | 2.0 | 0.00 | 0.00 | 0.00 | 88 | 1023.5 |
| 20260502035404 | 40 | 52 | 0.0 | 0.0 | 0.00 | 0.00 | 0.00 | 88 | 1023.5 |
| 20260502034905 | 40 | 52 | 0.0 | 0.0 | 0.00 | 0.00 | 0.00 | 88 | 1023.5 |
| 20260502034404 | 40 | 52 | 0.0 | 2.0 | 0.00 | 0.00 | 0.00 | 88 | 1023.5 |
| 20260502033905 | 40 | 52 | 1.0 | 2.0 | 0.00 | 0.00 | 0.00 | 88 | 1023.5 |
| 20260502033404 | 40 | 52 | 2.0 | 3.0 | 0.00 | 0.00 | 0.00 | 88 | 1023.5 |
| 20260502032904 | 40 | 51 | 2.0 | 3.0 | 0.00 | 0.00 | 0.00 | 87 | 1023.5 |
| 20260502032404 | 40 | 51 | 2.0 | 3.0 | 0.00 | 0.00 | 0.00 | 87 | 1023.5 |
| 20260502031905 | 40 | 51 | 1.0 | 2.0 | 0.00 | 0.00 | 0.00 | 87 | 1023.5 |
| 20260502030404 | 40 | 51 | 0.0 | 0.0 | 0.00 | 0.00 | 0.00 | 87 | 1023.6 |
| 20260502025904 | 40 | 51 | 0.0 | 0.0 | 0.00 | 0.00 | 0.00 | 87 | 1023.6 |
| 20260502025405 | 41 | 51 | 0.0 | 0.0 | 0.00 | 0.00 | 0.00 | 86 | 1023.6 |
| 20260502024904 | 41 | 51 | 0.0 | 0.0 | 0.00 | 0.00 | 0.00 | 86 | 1023.5 |
| 20260502024405 | 41 | 51 | 0.0 | 0.0 | 0.00 | 0.00 | 0.00 | 86 | 1023.6 |
| 20260502023904 | 41 | 51 | 1.0 | 2.0 | 0.00 | 0.00 | 0.00 | 86 | 1023.5 |
| 20260502022904 | 41 | 51 | 1.0 | 2.0 | 0.00 | 0.00 | 0.00 | 86 | 1023.5 |
| 20260502022405 | 41 | 51 | 1.0 | 2.0 | 0.00 | 0.00 | 0.00 | 86 | 1023.5 |
| 20260502021904 | 41 | 51 | 0.0 | 0.0 | 0.00 | 0.00 | 0.00 | 86 | 1023.6 |
| 20260502021404 | 41 | 51 | 0.0 | 0.0 | 0.00 | 0.00 | 0.00 | 85 | 1023.5 |
| 20260502020904 | 42 | 51 | 0.0 | 0.0 | 0.00 | 0.00 | 0.00 | 85 | 1023.5 |
| 20260502020404 | 42 | 51 | 0.0 | 0.0 | 0.00 | 0.00 | 0.00 | 85 | 1023.4 |
| 20260502015904 | 42 | 51 | 0.0 | 0.0 | 0.00 | 0.00 | 0.00 | 85 | 1023.5 |
| 20260502015404 | 42 | 51 | 0.0 | 1.0 | 0.00 | 0.00 | 0.00 | 85 | 1023.5 |
| 20260502014404 | 42 | 51 | 0.0 | 2.0 | 0.00 | 0.00 | 0.00 | 85 | 1023.4 |
| 20260502013904 | 42 | 51 | 1.0 | 2.0 | 0.00 | 0.00 | 0.00 | 85 | 1023.4 |
| 20260502012904 | 42 | 51 | 0.0 | 0.0 | 0.00 | 0.00 | 0.00 | 85 | 1023.4 |
| 20260502012405 | 43 | 51 | 0.0 | 0.0 | 0.00 | 0.00 | 0.00 | 85 | 1023.4 |
| 20260502011904 | 43 | 51 | 0.0 | 0.0 | 0.00 | 0.00 | 0.00 | 85 | 1023.5 |
| 20260502011404 | 43 | 51 | 0.0 | 0.0 | 0.00 | 0.00 | 0.00 | 85 | 1023.4 |
| 20260502010904 | 43 | 51 | 0.0 | 0.0 | 0.00 | 0.00 | 0.00 | 85 | 1023.4 |
| 20260502010405 | 43 | 51 | 0.0 | 1.0 | 0.00 | 0.00 | 0.00 | 85 | 1023.5 |
| 20260502005904 | 43 | 51 | 1.0 | 3.0 | 0.00 | 0.00 | 0.00 | 85 | 1023.5 |
| 20260502005405 | 43 | 51 | 2.0 | 3.0 | 0.00 | 0.00 | 0.00 | 85 | 1023.5 |
| 20260502004904 | 43 | 51 | 2.0 | 3.0 | 0.00 | 0.00 | 0.00 | 84 | 1023.5 |
| 20260502004404 | 43 | 51 | 2.0 | 3.0 | 0.00 | 0.00 | 0.00 | 84 | 1023.5 |
| 20260502003404 | 43 | 50 | 1.0 | 3.0 | 0.00 | 0.00 | 0.00 | 84 | 1023.5 |
| 20260502002904 | 43 | 50 | 1.0 | 3.0 | 0.00 | 0.00 | 0.00 | 83 | 1023.6 |
| 20260502002404 | 43 | 50 | 2.0 | 3.0 | 0.00 | 0.00 | 0.00 | 83 | 1023.6 |
| 20260502001904 | 44 | 50 | 2.0 | 3.0 | 0.00 | 0.00 | 0.00 | 82 | 1023.6 |
| 20260502001404 | 44 | 50 | 2.0 | 3.0 | 0.00 | 0.00 | 0.00 | 82 | 1023.7 |
| 20260502000904 | 44 | 50 | 2.0 | 3.0 | 0.00 | 0.00 | 0.00 | 81 | 1023.7 |
| 20260502000404 | 44 | 50 | 1.0 | 2.0 | 0.00 | 0.00 | 0.00 | 81 | 1023.7 |
| 20260501235905 | 44 | 50 | 0.0 | 0.0 | 0.00 | 0.00 | 0.00 | 81 | 1023.7 |
| 20260501235404 | 45 | 50 | 0.0 | 0.0 | 0.00 | 0.00 | 0.00 | 81 | 1023.8 |
| 20260501234904 | 45 | 50 | 0.0 | 0.0 | 0.00 | 0.00 | 0.00 | 80 | 1023.8 |
| 20260501234405 | 45 | 50 | 0.0 | 0.0 | 0.00 | 0.00 | 0.00 | 80 | 1023.8 |
| 20260501233908 | 45 | 50 | 0.0 | 0.0 | 0.00 | 0.00 | 0.00 | 80 | 1023.8 |
| 20260501233404 | 45 | 50 | 0.0 | 16.0 | 0.00 | 0.00 | 0.00 | 80 | 1023.8 |
| 20260501232904 | 45 | 50 | 0.0 | 0.0 | 0.00 | 0.00 | 0.00 | 80 | 1023.7 |
| 20260501232404 | 45 | 50 | 0.0 | 3.0 | 0.00 | 0.00 | 0.00 | 80 | 1023.7 |
| 20260501231404 | 46 | 50 | 1.0 | 2.0 | 0.00 | 0.00 | 0.00 | 79 | 1023.8 |
| 20260501230405 | 46 | 50 | 1.0 | 2.0 | 0.00 | 0.00 | 0.00 | 79 | 1023.8 |
| 20260501225404 | 46 | 50 | 1.0 | 2.0 | 0.00 | 0.00 | 0.00 | 78 | 1023.8 |
| 20260501224404 | 47 | 50 | 1.0 | 3.0 | 0.00 | 0.00 | 0.00 | 78 | 1023.8 |
| 20260501223904 | 47 | 50 | 1.0 | 2.0 | 0.00 | 0.00 | 0.00 | 77 | 1023.8 |
| 20260501223404 | 47 | 50 | 0.0 | 0.0 | 0.00 | 0.00 | 0.00 | 76 | 1023.8 |
| 20260501222904 | 47 | 50 | 0.0 | 0.0 | 0.00 | 0.00 | 0.00 | 76 | 1023.8 |
| 20260501222404 | 48 | 50 | 0.0 | 2.0 | 0.00 | 0.00 | 0.00 | 76 | 1023.8 |
| 20260501221905 | 48 | 50 | 0.0 | 2.0 | 0.00 | 0.00 | 0.00 | 76 | 1023.8 |
| 20260501220904 | 48 | 50 | 0.0 | 0.0 | 0.00 | 0.00 | 0.00 | 75 | 1023.9 |
| 20260501220404 | 48 | 50 | 0.0 | 1.0 | 0.00 | 0.00 | 0.00 | 75 | 1023.8 |
| 20260501215904 | 48 | 50 | 0.0 | 0.0 | 0.00 | 0.00 | 0.00 | 75 | 1023.8 |
| 20260501215404 | 49 | 50 | 0.0 | 2.0 | 0.00 | 0.00 | 0.00 | 74 | 1023.7 |
| 20260501214904 | 49 | 50 | 1.0 | 2.0 | 0.00 | 0.00 | 0.00 | 74 | 1023.7 |
| 20260501214404 | 49 | 50 | 0.0 | 1.0 | 0.00 | 0.00 | 0.00 | 74 | 1023.7 |
| 20260501213404 | 49 | 50 | 0.0 | 1.0 | 0.00 | 0.00 | 0.00 | 73 | 1023.7 |
| 20260501212404 | 50 | 50 | 1.0 | 2.0 | 0.00 | 0.00 | 0.00 | 73 | 1023.7 |
| 20260501211905 | 50 | 50 | 0.0 | 1.0 | 0.00 | 0.00 | 0.00 | 73 | 1023.6 |
| 20260501211404 | 50 | 50 | 0.0 | 2.0 | 0.00 | 0.00 | 0.00 | 73 | 1023.6 |
| 20260501210904 | 50 | 50 | 1.0 | 2.0 | 0.00 | 0.00 | 0.00 | 72 | 1023.6 |
| 20260501210404 | 50 | 50 | 1.0 | 2.0 | 0.00 | 0.00 | 0.00 | 72 | 1023.6 |